Regional Weather Roundup
Issued by NWS Sterling, VA

Home | Current Version | Previous Version | Graphics & Text | Print | Product List | Glossary On
Versions: 1 2 3 4 5 6 7 8 9 10 11 12 13 14 15 16 17 18 19 20 21 22 23 24 25 26 27 28 29 30 31 32 33 34 35 36 37 38 39 40 41 42 43 44 45 46 47 48 49 50
361
ASUS41 KLWX 152310
RWRLWX

REGIONAL WEATHER ROUNDUP
NATIONAL WEATHER SERVICE BALTIMORE MD/WASHINGTON DC
600 PM EST SUN JAN 15 2017

Note: "FAIR" indicates few or no clouds below 12,000 feet
with no significant weather and/or obstructions to visibility.
 TC=TEMPERATURE CELSIUS

 * =Non NWS site. Station does not report precipitation (e.g. rain,
    snow, etc.), thunder, or fog.

DCZ001-MDZ009-015-VAZ040>042-051-053>054-160000-
WASHINGTON METRO

CITY           SKY/WX    TMP DP  RH WIND       PRES   REMARKS
WASHINGTON NAT CLOUDY    44  23  43 N6        30.39R
DULLES         CLOUDY    40  18  41 N3        30.38R
ANDREWS AFB    CLOUDY    40  27  60 CALM      30.37R
FT BELVOIR     CLOUDY    44   9  24 CALM      30.38R
QUANTICO       PTCLDY    43  30  60 NE3       30.39R
COLLEGE PARK*  CLOUDY    39  23  52 CALM      30.38S
LEESBURG*      CLOUDY    41  23  48 MISG      30.39R
MANASSAS*      CLEAR    N/A N/A N/A N7        30.39R
GAITHERSBURG*  CLOUDY    37  21  52 CALM      30.41S

$$

MDZ006>007-011-014-160000-
BALTIMORE METRO

CITY           SKY/WX    TMP DP  RH WIND       PRES   REMARKS
BWI AIRPORT    MOCLDY    40  26  57 NW3       30.38R
MD SCIENCE CTR   N/A     42  21  43 MISG      30.39R
MARTIN STATE   MOCLDY    37  34  87 CALM      30.41R
ANNAPOLIS      CLOUDY    40  30  67 S3        30.38R
FORT MEADE*    PTCLDY    36  27  69 NW3       30.41R

$$

MDZ012-015-019>023-160000-
MARYLAND EASTERN SHORE

CITY           SKY/WX    TMP DP  RH WIND       PRES   REMARKS
OCEAN CITY     PTCLDY    37  32  82 CALM      30.38R
SALISBURY      CLOUDY    38  30  73 CALM      30.38R
BAY BRIDGE AP* CLOUDY    37  28  70 CALM      30.39S
CAMBRIDGE*     CLOUDY    36  30  80 N3        30.38S
EASTON*        MOCLDY    39  27  60 N3        30.42R

$$

MDZ017>025-160000-
SOUTHERN MARYLAND

CITY           SKY/WX    TMP DP  RH WIND       PRES   REMARKS
PATUXENT RIVER MOCLDY    39  25  57 CALM      30.38R
ST INIGOES     NOT AVBL
LEONARDTOWN*   CLOUDY    36  27  69 CALM      30.39S

$$

MDZ003>005-160000-
NORTH CENTRAL MARYLAND

CITY           SKY/WX    TMP DP  RH WIND       PRES   REMARKS
FREDERICK*     CLEAR     37  25  60 CALM      30.41R
HAGERSTOWN APT CLOUDY    37  23  56 CALM      30.36R
WESTMINSTER*   CLOUDY    34  19  55 CALM      30.36R

$$

MDZ501>502-160000-
WESTERN MARYLAND

CITY           SKY/WX    TMP DP  RH WIND       PRES   REMARKS
OAKLAND*         N/A     30  30 100 CALM      30.27R
CUMBERLAND*    CLOUDY    39  28  65 CALM      30.38S

$$

VAZ025>031-160000-
SHENANDOAH VALLEY

CITY           SKY/WX    TMP DP  RH WIND       PRES   REMARKS
WINCHESTER*    PTCLDY    36  23  60 E3        30.36R
FRONT ROYAL*   NOT AVBL
LURAY*         CLOUDY    43  36  75 NE7       30.34R
NEW MARKET*    CLOUDY    43  34  70 N5        30.33R
STAUNTON*      CLOUDY    42  38  88 S5        30.35R
WAYNESBORO*    CLOUDY    39  38  94 E3        30.33R

$$

WVZ021-048>050-054>055-160000-
EASTERN WEST VIRGINIA PANHANDLE

CITY           SKY/WX    TMP DP  RH WIND       PRES   REMARKS
MARTINSBURG    CLOUDY    37  21  52 N3        30.36R
PETERSBURG*    CLOUDY    43  38  83 CALM      30.34S

$$

VAZ036>039-050-160000-
CENTRAL FOOTHILLS

CITY           SKY/WX    TMP DP  RH WIND       PRES   REMARKS
CHARLOTTESVILL CLOUDY    43  38  82 CALM      30.36R
CULPEPER*      CLOUDY    44  28  53 CALM      30.39R
ORANGE*          N/A     43  41  93 CALM      30.39R
GORDONSVILLE*  CLOUDY    43  38  85 CALM      30.36R
WARRENTON*     CLOUDY    44  22  42 N5        30.38R

$$

VAZ055>057-160000-
NORTH AND CENTRAL PIEDMONT

CITY           SKY/WX    TMP DP  RH WIND       PRES   REMARKS
FREDERICKSBRG* MOCLDY    43  32  64 CALM      30.38R
STAFFORD*      PTCLDY    42  27  55 CALM      30.41R

$$

NCZ024-NYZ072-PAZ021-071-VAZ022-071-160000-
OTHER REGIONAL OBSERVATIONS

CITY           SKY/WX    TMP DP  RH WIND       PRES   REMARKS
NEW YORK CITY  CLEAR     37  20  50 CALM      30.38R
PHILADELPHIA   MOCLDY    36  20  52 N10       30.40R WCI  28
PITTSBURGH     CLOUDY    33  19  56 CALM      30.34F
ROANOKE        LGT RAIN  46  44  93 E7        30.34R
RICHMOND       CLOUDY    45  31  58 NE5       30.37R
RALEIGH        CLOUDY    52  40  63 E8        30.33R

$$

ANZ530>537-160000-
MARINE OBSERVATIONS

STATION/POSITION TIME  TEMP    WIND        PRES
                       AIR SEA DIR/SP/G
                 (UTC) (F)     (DEG/KT/KT) (MB)
THOMAS PT LIGHT  2300   39 38  170/  2/  2   N/A
BALT KEY BRIDGE  2248   38     110/  2/  2 1029.0R
COVE POINT       2248   38     360/  3/  6 1029.4R
LEWISETTA        2248   41 42   50/  2/  4 1028.4S
SOLOMONS ISLAND  2248   39 41   CALM  /  1   N/A
PINEY POINT      2248           70/  3/  4   N/A

$$





USA.gov is the U.S. government's official web portal to all federal, state and local government web resources and services.